,,,PA_Meas_PMT16A,,PR_Meas_QMR101_102,,RH_Meas_QMH101,,SR_Meas_QMS101,,TA_Meas_QMH101,,GenWind,,GenWind,
date,time,status,PA,status,PR,status,RH,status,SR,status,TA,status,DirAvg,status,SpdAvg,
2011-01-09, 00:00:05,VALID,1001.27,VALID,0,INVALID,163.639,VALID,0,VALID,24.8911,VALID,347,VALID,0.362109,
2011-01-09, 00:01:05,VALID,1001.29,VALID,0,INVALID,163.67,VALID,0,VALID,24.8911,VALID,347,VALID,0.317578,
2011-01-09, 00:02:05,VALID,1001.28,VALID,0,INVALID,163.639,VALID,0,VALID,24.9106,VALID,352,VALID,0.442578,
2011-01-09, 00:03:05,VALID,1001.3,VALID,0,INVALID,163.639,VALID,0,VALID,24.9495,VALID,352,VALID,0.196875,
2011-01-09, 00:04:05,VALID,1001.28,VALID,0,INVALID,163.624,VALID,0,VALID,24.9885,VALID,352,VALID,0.394141,
2011-01-09, 00:05:05,VALID,1001.3,VALID,0,INVALID,163.632,VALID,0,VALID,24.9866,VALID,352,VALID,0.454297,
2011-01-09, 00:06:05,VALID,1001.25,VALID,0,INVALID,163.647,VALID,0,VALID,24.9866,VALID,352,VALID,0.373437,
2011-01-09, 00:07:05,VALID,1001.26,VALID,0,INVALID,163.655,VALID,0,VALID,24.9885,VALID,352,VALID,0.226563,
2011-01-09, 00:08:05,VALID,1001.26,VALID,0,INVALID,163.67,VALID,0,VALID,24.969,VALID,352,VALID,0.564453,
2011-01-09, 00:09:05,VALID,1001.25,VALID,0,INVALID,163.639,VALID,0,VALID,24.9282,VALID,352,VALID,0.520312,
2011-01-09, 00:10:05,VALID,1001.24,VALID,0,INVALID,163.632,VALID,0,VALID,24.93,VALID,352,VALID,0.320313,
2011-01-09, 00:11:05,VALID,1001.23,VALID,0,INVALID,163.655,VALID,0,VALID,24.8892,VALID,352,VALID,0.413672,
2011-01-09, 00:12:05,VALID,1001.23,VALID,0,INVALID,163.693,VALID,0,VALID,24.8697,VALID,352,VALID,0.215625,
2011-01-09, 00:13:05,VALID,1001.22,VALID,0,INVALID,163.662,VALID,0,VALID,24.8522,VALID,352,VALID,0.253516,
2011-01-09, 00:14:05,VALID,1001.19,VALID,0,INVALID,163.662,VALID,0,VALID,24.8327,VALID,3,VALID,0.477344,
2011-01-09, 00:15:05,VALID,1001.17,VALID,0,INVALID,163.647,VALID,0,VALID,24.8327,VALID,3,VALID,0.231641,
2011-01-09, 00:16:05,VALID,1001.17,VALID,0,INVALID,163.647,VALID,0,VALID,24.8113,VALID,358,VALID,0.242188,
2011-01-09, 00:17:05,VALID,1001.13,VALID,0,INVALID,163.647,VALID,0,VALID,24.8522,VALID,356,VALID,0.527734,
2011-01-09, 00:18:05,VALID,1001.11,VALID,0,INVALID,163.639,VALID,0,VALID,24.8522,VALID,355,VALID,0.26875,
2011-01-09, 00:19:05,VALID,1001.05,VALID,0,INVALID,163.655,VALID,0,VALID,24.93,VALID,350,VALID,0.293359,
2011-01-09, 00:20:05,VALID,1001.06,VALID,0,INVALID,163.647,VALID,0,VALID,24.969,VALID,350,VALID,0.148047,
2011-01-09, 00:21:05,VALID,1001.02,VALID,0,INVALID,163.639,VALID,0,VALID,24.9476,VALID,350,VALID,0.267969,
2011-01-09, 00:22:05,VALID,1001.03,VALID,0,INVALID,163.655,VALID,0,VALID,24.969,VALID,350,VALID,0.54375,
2011-01-09, 00:23:05,VALID,1001.02,VALID,0,INVALID,163.639,VALID,0,VALID,24.9106,VALID,350,VALID,0.449219,
2011-01-09, 00:24:05,VALID,1000.99,VALID,0,INVALID,163.655,VALID,0,VALID,24.8911,VALID,2,VALID,0.382422,
2011-01-09, 00:25:05,VALID,1001,VALID,0,INVALID,163.639,VALID,0,VALID,24.8522,VALID,2,VALID,0.303516,
2011-01-09, 00:26:05,VALID,1001.01,VALID,0,INVALID,163.647,VALID,0,VALID,24.8327,VALID,2,VALID,0.326953,
2011-01-09, 00:27:05,VALID,1000.99,VALID,0,INVALID,163.639,VALID,0,VALID,24.7919,VALID,2,VALID,0.390234,
2011-01-09, 00:28:05,VALID,1000.99,VALID,0,INVALID,163.655,VALID,0,VALID,24.8327,VALID,360,VALID,0.434375,
2011-01-09, 00:29:05,VALID,1000.99,VALID,0,INVALID,163.655,VALID,0,VALID,24.8522,VALID,360,VALID,0.378125,
2011-01-09, 00:30:05,VALID,1001.02,VALID,0,INVALID,163.639,VALID,0,VALID,24.7919,VALID,360,VALID,0.294531,
2011-01-09, 00:31:05,VALID,1001.04,VALID,0,INVALID,163.655,VALID,0,VALID,24.7743,VALID,360,VALID,0.367188,
2011-01-09, 00:32:05,VALID,1001.02,VALID,0,INVALID,163.67,VALID,0,VALID,24.7353,VALID,360,VALID,0.430469,
2011-01-09, 00:33:05,VALID,1001.07,VALID,0,INVALID,163.647,VALID,0,VALID,24.7159,VALID,360,VALID,0.29375,
2011-01-09, 00:34:05,VALID,1001.07,VALID,0,INVALID,163.67,VALID,0,VALID,24.6556,VALID,360,VALID,0.309766,
2011-01-09, 00:35:05,VALID,1001.08,VALID,0,INVALID,163.67,VALID,0,VALID,24.6361,VALID,360,VALID,0.357812,
2011-01-09, 00:36:05,VALID,1001.05,VALID,0,INVALID,163.639,VALID,0,VALID,24.638,VALID,360,VALID,0.341016,
2011-01-09, 00:37:05,VALID,1001.06,VALID,0,INVALID,163.67,VALID,0,VALID,24.5972,VALID,360,VALID,0.387891,
2011-01-09, 00:38:05,VALID,1001.07,VALID,0,INVALID,163.693,VALID,0,VALID,24.599,VALID,360,VALID,0.441016,
2011-01-09, 00:39:05,VALID,1001.02,VALID,0,INVALID,163.662,VALID,0,VALID,24.638,VALID,357,VALID,0.364062,
2011-01-09, 00:40:05,VALID,1001,VALID,0,INVALID,163.678,VALID,0.100563,VALID,24.6342,VALID,357,VALID,0.285937,
2011-01-09, 00:41:05,VALID,1000.97,VALID,0,INVALID,163.655,VALID,0,VALID,24.6342,VALID,357,VALID,0.475391,
2011-01-09, 00:42:05,VALID,1000.94,VALID,0,INVALID,163.647,VALID,0,VALID,24.6342,VALID,357,VALID,0.368359,
2011-01-09, 00:43:05,VALID,1000.95,VALID,0,INVALID,163.662,VALID,0.100563,VALID,24.6361,VALID,357,VALID,0.66875,
2011-01-09, 00:44:05,VALID,1000.93,VALID,0,INVALID,163.647,VALID,0.100563,VALID,24.5582,VALID,357,VALID,0.701172,
2011-01-09, 00:45:05,VALID,1000.94,VALID,0,INVALID,163.67,VALID,0.100563,VALID,24.498,VALID,357,VALID,0.649609,
2011-01-09, 00:46:05,VALID,1000.91,VALID,0,INVALID,163.678,VALID,0.100563,VALID,24.4396,VALID,357,VALID,0.511719,
2011-01-09, 00:47:05,VALID,1000.93,VALID,0,INVALID,163.685,VALID,0,VALID,24.4006,VALID,4,VALID,0.596484,
2011-01-09, 00:48:05,VALID,1000.91,VALID,0,INVALID,163.701,VALID,0.100563,VALID,24.3617,VALID,4,VALID,0.574219,
2011-01-09, 00:49:05,VALID,1000.91,VALID,0,INVALID,163.678,VALID,0,VALID,24.3636,VALID,4,VALID,0.447266,
2011-01-09, 00:50:05,VALID,1000.9,VALID,0,INVALID,163.693,VALID,0.100563,VALID,24.2839,VALID,4,VALID,0.629297,
2011-01-09, 00:51:05,VALID,1000.88,VALID,0,INVALID,163.701,VALID,0.100563,VALID,24.2644,VALID,3,VALID,0.601953,
2011-01-09, 00:52:05,VALID,1000.88,VALID,0,INVALID,163.708,VALID,0,VALID,24.2449,VALID,3,VALID,0.564062,
2011-01-09, 00:53:05,VALID,1000.84,VALID,0,INVALID,163.693,VALID,0.100563,VALID,24.2468,VALID,3,VALID,0.609375,
2011-01-09, 00:54:05,VALID,1000.86,VALID,0,INVALID,163.693,VALID,0.100563,VALID,24.2255,VALID,3,VALID,0.640625,
2011-01-09, 00:55:05,VALID,1000.86,VALID,0,INVALID,163.693,VALID,0,VALID,24.2291,VALID,3,VALID,0.704687,
2011-01-09, 00:56:05,VALID,1000.85,VALID,0,INVALID,163.708,VALID,0,VALID,24.1902,VALID,2,VALID,0.667188,
2011-01-09, 00:57:05,VALID,1000.82,VALID,0,INVALID,163.701,VALID,0,VALID,24.1707,VALID,2,VALID,0.557813,
2011-01-09, 00:58:05,VALID,1000.83,VALID,0,INVALID,163.731,VALID,0,VALID,24.1707,VALID,2,VALID,0.579687,
2011-01-09, 00:59:05,VALID,1000.84,VALID,0,INVALID,163.701,VALID,0,VALID,24.1513,VALID,2,VALID,0.530078,
2011-01-09, 01:00:05,VALID,1000.81,VALID,0,INVALID,163.685,VALID,0,VALID,24.0892,VALID,2,VALID,0.409375,
2011-01-09, 01:01:05,VALID,1000.82,VALID,0,INVALID,163.723,VALID,0,VALID,24.1123,VALID,2,VALID,0.574609,
2011-01-09, 01:02:05,VALID,1000.8,VALID,0,INVALID,163.693,VALID,0,VALID,24.0716,VALID,352,VALID,0.439063,
2011-01-09, 01:03:05,VALID,1000.79,VALID,0,INVALID,163.716,VALID,0,VALID,24.0734,VALID,351,VALID,0.320703,
2011-01-09, 01:04:05,VALID,1000.79,VALID,0,INVALID,163.685,VALID,0,VALID,24.0539,VALID,348,VALID,0.603906,
2011-01-09, 01:05:05,VALID,1000.8,VALID,0,INVALID,163.708,VALID,0,VALID,24.0521,VALID,347,VALID,0.276172,
2011-01-09, 01:06:05,VALID,1000.75,VALID,0,INVALID,163.678,VALID,0,VALID,24.1123,VALID,347,VALID,0.444531,
2011-01-09, 01:07:05,VALID,1000.75,VALID,0,INVALID,163.693,VALID,0,VALID,24.1494,VALID,339,VALID,0.762891,
2011-01-09, 01:08:05,VALID,1000.76,VALID,0,INVALID,163.708,VALID,0,VALID,24.1884,VALID,341,VALID,0.971094,
2011-01-09, 01:09:05,VALID,1000.74,VALID,0,INVALID,163.693,VALID,0,VALID,24.3052,VALID,347,VALID,0.853906,
2011-01-09, 01:10:05,VALID,1000.71,VALID,0,INVALID,163.731,VALID,0,VALID,24.383,VALID,358,VALID,0.610156,
2011-01-09, 01:11:05,VALID,1000.69,VALID,0,INVALID,163.67,VALID,0,VALID,24.4628,VALID,340,VALID,1.01289,
2011-01-09, 01:12:05,VALID,1000.67,VALID,0,INVALID,163.678,VALID,0,VALID,24.5193,VALID,354,VALID,0.949609,
2011-01-09, 01:13:05,VALID,1000.59,VALID,0,INVALID,163.685,VALID,0,VALID,24.599,VALID,342,VALID,0.640234,
2011-01-09, 01:14:05,VALID,1000.57,VALID,0,INVALID,163.678,VALID,0,VALID,24.6185,VALID,349,VALID,0.701953,
2011-01-09, 01:15:05,VALID,1000.56,VALID,0,INVALID,163.67,VALID,0,VALID,24.6769,VALID,356,VALID,0.978906,
2011-01-09, 01:16:05,VALID,1000.58,VALID,0,INVALID,163.685,VALID,0,VALID,24.7529,VALID,344,VALID,0.894531,
2011-01-09, 01:17:05,VALID,1000.56,VALID,0,INVALID,163.67,VALID,0,VALID,24.8113,VALID,352,VALID,0.578125,
2011-01-09, 01:18:05,VALID,1000.55,VALID,0,INVALID,163.655,VALID,0,VALID,24.8113,VALID,344,VALID,0.551172,
2011-01-09, 01:19:05,VALID,1000.53,VALID,0,INVALID,163.662,VALID,0,VALID,24.7919,VALID,351,VALID,0.835938,
2011-01-09, 01:20:05,VALID,1000.52,VALID,0,INVALID,163.624,VALID,0,VALID,24.8308,VALID,10,VALID,0.550391,
2011-01-09, 01:21:05,VALID,1000.5,VALID,0,INVALID,163.624,VALID,0,VALID,24.8503,VALID,355,VALID,0.712891,
2011-01-09, 01:22:05,VALID,1000.48,VALID,0,INVALID,163.632,VALID,0,VALID,24.9106,VALID,348,VALID,0.466797,
2011-01-09, 01:23:05,VALID,1000.43,VALID,0,INVALID,163.67,VALID,0,VALID,24.8892,VALID,353,VALID,0.446094,
2011-01-09, 01:24:05,VALID,1000.41,VALID,0,INVALID,163.647,VALID,0,VALID,24.8697,VALID,353,VALID,0.369922,
2011-01-09, 01:25:05,VALID,1000.39,VALID,0,INVALID,163.639,VALID,0,VALID,24.8697,VALID,353,VALID,0.388281,
2011-01-09, 01:26:05,VALID,1000.36,VALID,0,INVALID,163.655,VALID,0,VALID,24.8113,VALID,353,VALID,0.519531,
2011-01-09, 01:27:05,VALID,1000.35,VALID,0,INVALID,163.647,VALID,0,VALID,24.8308,VALID,11,VALID,0.583203,
2011-01-09, 01:28:05,VALID,1000.34,VALID,0,INVALID,163.647,VALID,0,VALID,24.8308,VALID,11,VALID,0.2375,
2011-01-09, 01:29:04,VALID,1000.32,VALID,0,INVALID,163.639,VALID,0,VALID,24.8113,VALID,11,VALID,0.331641,
2011-01-09, 01:30:04,VALID,1000.32,VALID,0,INVALID,163.639,VALID,0,VALID,24.8113,VALID,11,VALID,0.179297,
2011-01-09, 01:31:04,VALID,1000.32,VALID,0,INVALID,163.647,VALID,0,VALID,24.7724,VALID,11,VALID,0.429688,
2011-01-09, 01:32:04,VALID,1000.27,VALID,0,INVALID,163.662,VALID,0,VALID,24.7724,VALID,11,VALID,0.285156,
2011-01-09, 01:33:04,VALID,1000.31,VALID,0,INVALID,163.678,VALID,0,VALID,24.7743,VALID,11,VALID,0.313672,
2011-01-09, 01:34:04,VALID,1000.29,VALID,0,INVALID,163.678,VALID,0,VALID,24.7335,VALID,9,VALID,0.375,
2011-01-09, 01:35:04,VALID,1000.3,VALID,0,INVALID,163.662,VALID,0,VALID,24.7353,VALID,9,VALID,0.401563,
2011-01-09, 01:36:04,VALID,1000.26,VALID,0,INVALID,163.655,VALID,0,VALID,24.6964,VALID,9,VALID,0.474219,
2011-01-09, 01:37:04,VALID,1000.28,VALID,0,INVALID,163.67,VALID,0,VALID,24.6166,VALID,9,VALID,0.414063,
2011-01-09, 01:38:04,VALID,1000.24,VALID,0,INVALID,163.655,VALID,0,VALID,24.5796,VALID,2,VALID,0.601953,
2011-01-09, 01:39:04,VALID,1000.18,VALID,0,INVALID,163.685,VALID,0,VALID,24.4998,VALID,3,VALID,0.523828,
2011-01-09, 01:40:04,VALID,1000.14,VALID,0,INVALID,163.685,VALID,0,VALID,24.4414,VALID,3,VALID,0.392188,
2011-01-09, 01:41:04,VALID,1000.15,VALID,0,INVALID,163.685,VALID,0,VALID,24.383,VALID,3,VALID,0.403516,
2011-01-09, 01:42:04,VALID,1000.09,VALID,0,INVALID,163.685,VALID,0,VALID,24.3654,VALID,2,VALID,0.416016,
2011-01-09, 01:43:04,VALID,1000.06,VALID,0,INVALID,163.685,VALID,0,VALID,24.3052,VALID,3,VALID,0.234766,
2011-01-09, 01:44:04,VALID,1000.05,VALID,0,INVALID,163.693,VALID,0,VALID,24.2875,VALID,3,VALID,0.261328,
2011-01-09, 01:45:04,VALID,1000.06,VALID,0,INVALID,163.716,VALID,0,VALID,24.2468,VALID,3,VALID,0.465234,
2011-01-09, 01:46:04,VALID,1000.02,VALID,0,INVALID,163.701,VALID,0,VALID,24.2273,VALID,3,VALID,0.484375,
2011-01-09, 01:47:04,VALID,1000.02,VALID,0,INVALID,163.685,VALID,0,VALID,24.2097,VALID,3,VALID,0.440234,
2011-01-09, 01:48:04,VALID,1000.01,VALID,0,INVALID,163.716,VALID,0,VALID,24.1494,VALID,3,VALID,0.446094,
2011-01-09, 01:49:04,VALID,999.974,VALID,0,INVALID,163.678,VALID,0,VALID,24.13,VALID,3,VALID,0.352734,
2011-01-09, 01:50:04,VALID,999.985,VALID,0,INVALID,163.708,VALID,0,VALID,24.1105,VALID,2,VALID,0.226563,
2011-01-09, 01:51:04,VALID,999.99,VALID,0,INVALID,163.716,VALID,0,VALID,24.1123,VALID,3,VALID,0.197266,
2011-01-09, 01:52:04,VALID,999.986,VALID,0,INVALID,163.731,VALID,0,VALID,24.1123,VALID,3,VALID,0.164844,
2011-01-09, 01:53:04,VALID,1000.02,VALID,0,INVALID,163.723,VALID,0,VALID,24.1123,VALID,3,VALID,0.146094,
2011-01-09, 01:54:04,VALID,1000.03,VALID,0,INVALID,163.701,VALID,0,VALID,24.13,VALID,3,VALID,0.225391,
2011-01-09, 01:55:04,VALID,1000.01,VALID,0,INVALID,163.708,VALID,0,VALID,24.1513,VALID,2,VALID,0.245312,
2011-01-09, 01:56:04,VALID,1000.03,VALID,0,INVALID,163.716,VALID,0,VALID,24.1105,VALID,3,VALID,0.440625,
2011-01-09, 01:57:04,VALID,1000.03,VALID,0,INVALID,163.708,VALID,0,VALID,24.091,VALID,3,VALID,0.429688,
2011-01-09, 01:58:04,VALID,999.995,VALID,0,INVALID,163.723,VALID,0,VALID,24.0734,VALID,3,VALID,0.518359,
2011-01-09, 01:59:04,VALID,1000,VALID,0,INVALID,163.731,VALID,0,VALID,24.0345,VALID,3,VALID,0.517578,
2011-01-09, 02:00:04,VALID,999.998,VALID,0,INVALID,163.685,VALID,0,VALID,24.0345,VALID,3,VALID,0.401172,
2011-01-09, 02:01:04,VALID,999.99,VALID,0,INVALID,163.716,VALID,0,VALID,23.9937,VALID,3,VALID,0.449609,
2011-01-09, 02:02:04,VALID,999.996,VALID,0,INVALID,163.716,VALID,0,VALID,23.9742,VALID,3,VALID,0.352734,
2011-01-09, 02:03:04,VALID,999.993,VALID,0,INVALID,163.716,VALID,0,VALID,23.9353,VALID,3,VALID,0.347656,
2011-01-09, 02:04:04,VALID,1000,VALID,0,INVALID,163.739,VALID,0,VALID,23.9548,VALID,3,VALID,0.455469,
2011-01-09, 02:05:04,VALID,1000.01,VALID,0,INVALID,163.716,VALID,0,VALID,23.9548,VALID,3,VALID,0.286328,
2011-01-09, 02:06:04,VALID,1000.02,VALID,0,INVALID,163.708,VALID,0,VALID,23.9353,VALID,3,VALID,0.35625,
2011-01-09, 02:07:04,VALID,1000,VALID,0,INVALID,163.739,VALID,0,VALID,23.9159,VALID,3,VALID,0.364844,
2011-01-09, 02:08:04,VALID,1000.05,VALID,0,INVALID,163.731,VALID,0,VALID,23.9353,VALID,3,VALID,0.520312,
2011-01-09, 02:09:04,VALID,1000.03,VALID,0,INVALID,163.746,VALID,0,VALID,23.9159,VALID,3,VALID,0.534375,
2011-01-09, 02:10:04,VALID,1000.08,VALID,0,INVALID,163.716,VALID,0,VALID,23.8964,VALID,3,VALID,0.578125,
2011-01-09, 02:11:04,VALID,1000.07,VALID,0,INVALID,163.739,VALID,0,VALID,23.8769,VALID,3,VALID,0.414063,
2011-01-09, 02:12:04,VALID,1000.06,VALID,0,INVALID,163.754,VALID,0,VALID,23.8575,VALID,3,VALID,0.536719,
2011-01-09, 02:13:04,VALID,1000.06,VALID,0,INVALID,163.746,VALID,0,VALID,23.8185,VALID,3,VALID,0.437109,
2011-01-09, 02:14:04,VALID,1000.03,VALID,0,INVALID,163.746,VALID,0,VALID,23.7991,VALID,3,VALID,0.473437,
2011-01-09, 02:15:04,VALID,1000.02,VALID,0,INVALID,163.731,VALID,0,VALID,23.7991,VALID,3,VALID,0.429688,
2011-01-09, 02:16:04,VALID,1000.01,VALID,0,INVALID,163.723,VALID,0,VALID,23.7796,VALID,3,VALID,0.505078,
2011-01-09, 02:17:04,VALID,999.994,VALID,0,INVALID,163.739,VALID,0,VALID,23.7601,VALID,3,VALID,0.513672,
2011-01-09, 02:18:04,VALID,999.979,VALID,0,INVALID,163.754,VALID,0,VALID,23.7814,VALID,360,VALID,0.70625,
2011-01-09, 02:19:04,VALID,999.969,VALID,0,INVALID,163.739,VALID,0,VALID,23.8009,VALID,360,VALID,0.719141,
2011-01-09, 02:20:04,VALID,999.94,VALID,0,INVALID,163.708,VALID,0,VALID,23.7796,VALID,359,VALID,0.801953,
2011-01-09, 02:21:04,VALID,999.884,VALID,0,INVALID,163.739,VALID,0,VALID,23.7601,VALID,358,VALID,0.669922,
2011-01-09, 02:22:04,VALID,999.91,VALID,0,INVALID,163.739,VALID,0,VALID,23.7407,VALID,4,VALID,0.800781,
2011-01-09, 02:23:04,VALID,999.914,VALID,0,INVALID,163.739,VALID,0,VALID,23.7407,VALID,7,VALID,0.654297,
2011-01-09, 02:24:04,VALID,999.881,VALID,0,INVALID,163.754,VALID,0,VALID,23.7425,VALID,7,VALID,0.592188,
2011-01-09, 02:25:04,VALID,999.863,VALID,0,INVALID,163.762,VALID,0,VALID,23.7017,VALID,7,VALID,0.660937,
2011-01-09, 02:26:04,VALID,999.85,VALID,0,INVALID,163.731,VALID,0,VALID,23.6823,VALID,7,VALID,0.636719,
2011-01-09, 02:27:04,VALID,999.84,VALID,0,INVALID,163.746,VALID,0,VALID,23.7035,VALID,7,VALID,0.775391,
2011-01-09, 02:28:04,VALID,999.833,VALID,0,INVALID,163.754,VALID,0,VALID,23.6628,VALID,6,VALID,0.776953,
2011-01-09, 02:29:04,VALID,999.825,VALID,0,INVALID,163.731,VALID,0,VALID,23.6823,VALID,5,VALID,0.767969,
2011-01-09, 02:30:04,VALID,999.786,VALID,0,INVALID,163.731,VALID,0,VALID,23.6823,VALID,4,VALID,0.828906,
2011-01-09, 02:31:04,VALID,999.796,VALID,0,INVALID,163.739,VALID,0,VALID,23.6841,VALID,3,VALID,0.799219,
2011-01-09, 02:32:04,VALID,999.798,VALID,0,INVALID,163.739,VALID,0,VALID,23.6646,VALID,3,VALID,0.619922,
2011-01-09, 02:33:04,VALID,999.775,VALID,0,INVALID,163.762,VALID,0,VALID,23.6646,VALID,2,VALID,0.700391,
2011-01-09, 02:34:04,VALID,999.765,VALID,0,INVALID,163.746,VALID,0,VALID,23.6434,VALID,1,VALID,0.473828,
2011-01-09, 02:35:04,VALID,999.726,VALID,0,INVALID,163.731,VALID,0,VALID,23.6646,VALID,360,VALID,0.648438,
2011-01-09, 02:36:04,VALID,999.723,VALID,0,INVALID,163.746,VALID,0,VALID,23.6841,VALID,360,VALID,0.368359,
2011-01-09, 02:37:04,VALID,999.7,VALID,0,INVALID,163.723,VALID,0,VALID,23.6628,VALID,360,VALID,0.0414063,
2011-01-09, 02:38:04,VALID,999.711,VALID,0,INVALID,163.762,VALID,0,VALID,23.7035,VALID,360,VALID,0,
2011-01-09, 02:39:04,VALID,999.734,VALID,0,INVALID,163.746,VALID,0,VALID,23.7017,VALID,360,VALID,0,
2011-01-09, 02:40:04,VALID,999.724,VALID,0,INVALID,163.739,VALID,0,VALID,23.7212,VALID,360,VALID,0,
2011-01-09, 02:41:04,VALID,999.718,VALID,0,INVALID,163.723,VALID,0,VALID,23.7212,VALID,360,VALID,0.137891,
2011-01-09, 02:42:04,VALID,999.74,VALID,0,INVALID,163.731,VALID,0,VALID,23.7619,VALID,360,VALID,0,
2011-01-09, 02:43:04,VALID,999.762,VALID,0,INVALID,163.739,VALID,0,VALID,23.7601,VALID,360,VALID,0.00390625,
2011-01-09, 02:44:04,VALID,999.774,VALID,0,INVALID,163.754,VALID,0,VALID,23.7796,VALID,339,VALID,0.436328,
2011-01-09, 02:45:04,VALID,999.794,VALID,0,INVALID,163.754,VALID,0,VALID,23.8167,VALID,339,VALID,0.199609,
2011-01-09, 02:46:04,VALID,999.777,VALID,0,INVALID,163.731,VALID,0,VALID,23.8575,VALID,339,VALID,0.0429688,
2011-01-09, 02:47:04,VALID,999.748,VALID,0,INVALID,163.739,VALID,0,VALID,23.8769,VALID,339,VALID,0,
2011-01-09, 02:48:04,VALID,999.736,VALID,0,INVALID,163.739,VALID,0,VALID,23.8964,VALID,339,VALID,0.0015625,
2011-01-09, 02:49:04,VALID,999.75,VALID,0,INVALID,163.693,VALID,0,VALID,23.8964,VALID,339,VALID,0,
2011-01-09, 02:50:04,VALID,999.755,VALID,0,INVALID,163.723,VALID,0,VALID,23.9159,VALID,339,VALID,0,
2011-01-09, 02:51:04,VALID,999.778,VALID,0,INVALID,163.701,VALID,0,VALID,23.9159,VALID,339,VALID,0.0199219,
2011-01-09, 02:52:04,VALID,999.762,VALID,0,INVALID,163.708,VALID,0,VALID,23.8946,VALID,339,VALID,0,
2011-01-09, 02:53:04,VALID,999.761,VALID,0,INVALID,163.731,VALID,0,VALID,23.9353,VALID,339,VALID,0.0183594,
2011-01-09, 02:54:04,VALID,999.768,VALID,0,INVALID,163.716,VALID,0,VALID,23.9371,VALID,345,VALID,0.385156,
2011-01-09, 02:55:04,VALID,999.778,VALID,0,INVALID,163.739,VALID,0,VALID,23.9159,VALID,346,VALID,0.187109,
2011-01-09, 02:56:04,VALID,999.772,VALID,0,INVALID,163.762,VALID,0,VALID,23.8769,VALID,346,VALID,0.426172,
2011-01-09, 02:57:04,VALID,999.758,VALID,0,INVALID,163.739,VALID,0,VALID,23.8575,VALID,346,VALID,0.116797,
2011-01-09, 02:58:04,VALID,999.756,VALID,0,INVALID,163.701,VALID,0,VALID,23.838,VALID,346,VALID,0.14375,
2011-01-09, 02:59:04,VALID,999.726,VALID,0,INVALID,163.716,VALID,0,VALID,23.8398,VALID,346,VALID,0.298047,
2011-01-09, 03:00:04,VALID,999.663,VALID,0,INVALID,163.746,VALID,0,VALID,23.8203,VALID,346,VALID,0.184375,
2011-01-09, 03:01:04,VALID,999.671,VALID,0,INVALID,163.731,VALID,0,VALID,23.7991,VALID,346,VALID,0.400391,
2011-01-09, 03:02:04,VALID,999.646,VALID,0,INVALID,163.723,VALID,0,VALID,23.7601,VALID,346,VALID,0.483594,
2011-01-09, 03:03:04,VALID,999.634,VALID,0,INVALID,163.754,VALID,0,VALID,23.7619,VALID,346,VALID,0.525391,
2011-01-09, 03:04:04,VALID,999.614,VALID,0,INVALID,163.723,VALID,0,VALID,23.7407,VALID,348,VALID,0.560156,
2011-01-09, 03:05:04,VALID,999.607,VALID,0,INVALID,163.746,VALID,0,VALID,23.7212,VALID,349,VALID,0.507422,
2011-01-09, 03:06:04,VALID,999.593,VALID,0,INVALID,163.777,VALID,0,VALID,23.6823,VALID,349,VALID,0.508594,
2011-01-09, 03:07:04,VALID,999.606,VALID,0,INVALID,163.746,VALID,0,VALID,23.6628,VALID,349,VALID,0.502344,
2011-01-09, 03:08:04,VALID,999.577,VALID,0,INVALID,163.762,VALID,0,VALID,23.6239,VALID,349,VALID,0.353125,
2011-01-09, 03:09:04,VALID,999.58,VALID,0,INVALID,163.754,VALID,0,VALID,23.6044,VALID,349,VALID,0.350781,
2011-01-09, 03:10:04,VALID,999.57,VALID,0,INVALID,163.716,VALID,0,VALID,23.585,VALID,349,VALID,0.4625,
2011-01-09, 03:11:04,VALID,999.579,VALID,0,INVALID,163.716,VALID,0,VALID,23.5655,VALID,349,VALID,0.516016,
2011-01-09, 03:12:04,VALID,999.563,VALID,0,INVALID,163.746,VALID,0,VALID,23.585,VALID,349,VALID,0.408203,
2011-01-09, 03:13:04,VALID,999.535,VALID,0,INVALID,163.754,VALID,0,VALID,23.585,VALID,349,VALID,0.444141,
2011-01-09, 03:14:04,VALID,999.528,VALID,0,INVALID,163.739,VALID,0,VALID,23.6257,VALID,349,VALID,0.394531,
2011-01-09, 03:15:04,VALID,999.54,VALID,0,INVALID,163.723,VALID,0,VALID,23.585,VALID,349,VALID,0.323828,
2011-01-09, 03:16:04,VALID,999.502,VALID,0,INVALID,163.754,VALID,0,VALID,23.5832,VALID,349,VALID,0.318359,
2011-01-09, 03:17:04,VALID,999.484,VALID,0,INVALID,163.723,VALID,0,VALID,23.6044,VALID,349,VALID,0.205469,
2011-01-09, 03:18:04,VALID,999.459,VALID,0,INVALID,163.731,VALID,0,VALID,23.585,VALID,349,VALID,0.208203,
2011-01-09, 03:19:04,VALID,999.464,VALID,0,INVALID,163.777,VALID,0,VALID,23.585,VALID,349,VALID,0.155469,
2011-01-09, 03:20:04,VALID,999.471,VALID,0,INVALID,163.746,VALID,0,VALID,23.5868,VALID,349,VALID,0.259375,
2011-01-09, 03:21:04,VALID,999.427,VALID,0,INVALID,163.723,VALID,0,VALID,23.546,VALID,349,VALID,0.280469,
2011-01-09, 03:22:04,VALID,999.437,VALID,0,INVALID,163.739,VALID,0,VALID,23.5655,VALID,349,VALID,0.282422,
2011-01-09, 03:23:04,VALID,999.424,VALID,0,INVALID,163.731,VALID,0.100563,VALID,23.5655,VALID,349,VALID,0.2625,
2011-01-09, 03:24:04,VALID,999.417,VALID,0,INVALID,163.754,VALID,0,VALID,23.5655,VALID,349,VALID,0.418359,
2011-01-09, 03:25:04,VALID,999.43,VALID,0,INVALID,163.739,VALID,0,VALID,23.546,VALID,349,VALID,0.4875,
2011-01-09, 03:26:04,VALID,999.402,VALID,0,INVALID,163.746,VALID,0,VALID,23.5655,VALID,349,VALID,0.487109,
2011-01-09, 03:27:04,VALID,999.421,VALID,0,INVALID,163.731,VALID,0,VALID,23.5266,VALID,349,VALID,0.452344,
2011-01-09, 03:28:04,VALID,999.42,VALID,0,INVALID,163.731,VALID,0,VALID,23.5071,VALID,349,VALID,0.392578,
2011-01-09, 03:29:04,VALID,999.419,VALID,0,INVALID,163.746,VALID,0,VALID,23.5071,VALID,349,VALID,0.358984,
2011-01-09, 03:30:04,VALID,999.392,VALID,0,INVALID,163.762,VALID,0,VALID,23.4877,VALID,349,VALID,0.385156,
2011-01-09, 03:31:04,VALID,999.372,VALID,0,INVALID,163.746,VALID,0,VALID,23.4877,VALID,349,VALID,0.482422,
2011-01-09, 03:32:04,VALID,999.363,VALID,0,INVALID,163.731,VALID,0,VALID,23.4682,VALID,349,VALID,0.458984,
2011-01-09, 03:33:04,VALID,999.383,VALID,0,INVALID,163.762,VALID,0,VALID,23.4682,VALID,349,VALID,0.359766,
2011-01-09, 03:34:04,VALID,999.382,VALID,0,INVALID,163.777,VALID,0,VALID,23.4664,VALID,349,VALID,0.251953,
2011-01-09, 03:35:04,VALID,999.37,VALID,0,INVALID,163.739,VALID,0,VALID,23.4877,VALID,349,VALID,0.380859,
2011-01-09, 03:36:04,VALID,999.362,VALID,0,INVALID,163.746,VALID,0.100563,VALID,23.5071,VALID,349,VALID,0.387891,
2011-01-09, 03:37:04,VALID,999.352,VALID,0,INVALID,163.754,VALID,0,VALID,23.4877,VALID,349,VALID,0.489844,
2011-01-09, 03:38:04,VALID,999.367,VALID,0,INVALID,163.754,VALID,0,VALID,23.4664,VALID,349,VALID,0.285937,
2011-01-09, 03:39:04,VALID,999.35,VALID,0,INVALID,163.754,VALID,0,VALID,23.4877,VALID,349,VALID,0.347266,
2011-01-09, 03:40:04,VALID,999.357,VALID,0,INVALID,163.777,VALID,0,VALID,23.4487,VALID,349,VALID,0.287109,
2011-01-09, 03:41:04,VALID,999.353,VALID,0,INVALID,163.762,VALID,0,VALID,23.4877,VALID,349,VALID,0.363281,